Regional Weather Roundup
Issued by NWS

Home | Current Version | Previous Version | Text Only | Print | Product List | Glossary Off
Versions: 1 2 3 4 5 6 7 8 9 10 11 12 13 14 15 16 17 18 19 20 21 22 23 24 25 26 27 28 29 30 31 32 33 34 35 36 37 38 39 40 41 42 43 44 45 46 47 48 49 50

616
ASUS43 KMKX 120920
RWRWI

WISCONSIN REGIONAL WEATHER ROUNDUP
NATIONAL WEATHER SERVICE MILWAUKEE/SULLIVAN WI
300 AM CST TUE DEC 12 2017

NOTE: "FAIR" INDICATES FEW OR NO CLOUDS BELOW 12,000 FEET WITH NO
SIGNIFICANT WEATHER AND/OR OBSTRUCTIONS TO VISIBILITY.

WIZ001-002-006>008-014>016-023>028-121000-
NORTHWEST WISCONSIN

CITY           SKY/WX    TMP DP  RH WIND       PRES   REMARKS
SUPERIOR ARPT  PTCLDY     5  -1  77 W6        30.22F WCI  -6
ASHLAND        CLOUDY    11   2  67 W14       30.15S WCI  -5
HAYWARD        PTCLDY     7   0  73 VRB5      30.14S WCI  -2
SIREN          CLOUDY     7   1  76 NW7       30.20S WCI  -4
CUMBERLAND     CLEAR      9   1  72 NW12      30.15R WCI  -6
RICE LAKE      CLEAR      9   2  75 CALM      30.18S
CHETEK         PTCLDY     9   3  78 CALM      30.17R
LADYSMITH      CLOUDY    12   5  73 NW10      30.13R WCI  -1
EAU CLAIRE     CLOUDY    11   3  70 NW9       30.17R WCI  -2
MENOMONIE      CLEAR     12   5  74 NW9       30.19R WCI  -1
NEW RICHMOND   CLEAR      9   4  78 NW10      30.20S WCI  -5
OSCEOLA        CLOUDY     9   4  80 NW9       30.25S WCI  -4
$$

WIZ003>005-009-010-017-018-121000-
NORTH CENTRAL WISCONSIN

CITY           SKY/WX    TMP DP  RH WIND       PRES   REMARKS
MANITOWISH WTR CLOUDY    10   3  72 NW14G21   30.01R WCI  -5
ARBOR VITAE    MOCLDY    11   5  76 N13       30.00R WCI  -4
WOODRUFF       MOCLDY    11   5  76 N13       30.00R WCI  -4
RHINELANDER    LGT SNOW  12   7  80 NW7       29.99R WCI   1
EAGLE RIVER    FLURRIES  10   3  73 N12G20    29.97S WCI  -4
LAND O LAKES   LGT SNOW  10   4  79 NW12      29.99S WCI  -5
PHILLIPS       CLOUDY    10   4  75 NW8       30.05S WCI  -2
TOMAHAWK       CLOUDY    11   4  73 NW10      30.03R WCI  -2
MEDFORD        CLOUDY    11   2  68 N10G17    30.05S WCI  -3
MERRILL        CLOUDY    13   4  67 NW12G17   30.04S WCI  -1
$$

WIZ029-030-035-036-043>047-121000-
CENTRAL WISCONSIN

CITY           SKY/WX    TMP DP  RH WIND       PRES   REMARKS
WAUSAU         CLOUDY    14   3  61 N14G24    30.03R WCI  -1
MOSINEE        CLOUDY    14   5  67 NW13G23   30.05R WCI   0
MARSHFIELD     CLOUDY    12   2  64 N18G28    30.05S WCI  -6
STEVENS POINT  CLOUDY    14   1  58 NW15G23   30.05S WCI  -2
WAUPACA        CLOUDY    20   6  53 NW8G16    30.04S WCI  11
WAUTOMA        CLOUDY    16   7  67 NW10G18   30.06  WCI   4
WISC RAPIDS    CLOUDY    14   6  70 N10G21    30.09R WCI   1
CAMP DOUGLAS   MOCLDY    15   4  64 NW13      30.10R WCI   0
$$

WIZ011>013-019>022-031-037>040-048>050-121000-
NORTHEAST WISCONSIN

CITY           SKY/WX    TMP DP  RH WIND       PRES   REMARKS
ANTIGO         CLOUDY    12   3  67 N21G26    29.98S WCI  -7
SHAWANO        PTCLDY    17   3  53 NW12G24   30.02R WCI   4
OCONTO         MOCLDY    15   2  58 N9G23     30.02R WCI   3
STURGEON BAY   CLOUDY    15   4  61 NW24G31   29.98R WCI  -4
GREEN BAY      CLOUDY    18   8  65 NW14      30.01R WCI   4
MANITOWOC      MOCLDY    17   5  59 NW17G24   29.99R WCI   1
APPLETON       CLOUDY    18   7  62 NW15      30.00R WCI   3
CLINTONVILLE   CLOUDY    18   7  62 NW13G18   30.03R WCI   4
OSHKOSH        MOCLDY    19   4  51 NW17G29   30.01R WCI   4
$$

WIZ032>034-041-042-053>061-121000-
SOUTHWEST WISCONSIN

CITY           SKY/WX    TMP DP  RH WIND       PRES   REMARKS
LA CROSSE      PTCLDY    16   7  67 NW13      30.17R WCI   2
SPARTA         CLOUDY    16   8  70 NW10G18   30.15S WCI   3
VIROQUA        PTCLDY    14   9  81 NW10G16   30.10R WCI   1
BOSCOBEL       CLEAR     19   7  59 NW9       30.15R WCI   8
PRAIRIE DU CHI PTCLDY    19   9  67 NW9G16    30.16S WCI   7
PLATTEVILLE    CLEAR     18  10  71 NW17G26   30.10R WCI   3
$$

WIZ056-057-062-063-064-067-068-121000-
SOUTH CENTRAL WISCONSIN

CITY           SKY/WX    TMP DP  RH WIND       PRES   REMARKS
REEDSBURG      CLOUDY    16   6  65 NW9       30.09R WCI   4
BARABOO/DELLS  PTCLDY    16   6  64 N16       30.07S WCI   0
LONE ROCK      MOCLDY    17   8  67 NW8       30.12R WCI   7
MINERAL POINT  CLEAR     19  12  73 NW12      30.07S WCI   7
MADISON        MOCLDY    17   7  64 N14G28    30.06R WCI   3
MIDDLETON      MOCLDY    20  10  67 NW16G24   30.06R WCI   5
WATERTOWN      PTCLDY    17   8  67 NW13G22   30.03R WCI   3
MONROE         CLEAR     19  10  68 NW7G17    30.05R WCI  10
JANESVILLE     CLOUDY    23  10  58 NW15G22   30.04R WCI  10
$$

WIZ051-052-058>065-066-070>072-121000-
SOUTHEAST WISCONSIN

CITY           SKY/WX    TMP DP  RH WIND       PRES   REMARKS
MILWAUKEE      PTCLDY    22   8  55 NW14G26   29.99R WCI   9
WAUKESHA       CLOUDY    19   9  63 NW18      30.00S WCI   4
MILWAUKEE/TIMM CLOUDY    21   9  58 NW15G24   30.00S WCI   8
RACINE         PTCLDY    21   9  59 NW16G35   30.00R WCI   7
BURLINGTON     CLEAR     30  25  81 NW13G20   30.01R WCI  20
KENOSHA        CLEAR     21   8  57 NW15G26   29.99R WCI   8
FOND DU LAC    MOCLDY    19   3  49 NW22G36   30.01R WCI   2
SHEBOYGAN      CLOUDY    18   7  62 N15G24    29.99R WCI   4
WEST BEND      CLOUDY    19   9  63 NW20G28   29.98S WCI   4
JUNEAU         CLOUDY    17   7  65 NW14G23   30.03R WCI   3
$$

LSZ147-162-121000-
LAKE SUPERIOR

STATION/POSITION TIME  TEMP    WIND        PRES    WAVE
                       AIR SEA DIR/SP/G            HT/PER
                 (UTC) (F)     (DEG/KT/KT) (MB)    (FT/S)
DEVILS ISLAND    0900   13     320/ 12/ 15 1022.3F
SAXON HARBOR     0830   17                 1020.0S
$$

LMZ867-665-643>646-121000-
LAKE MICHIGAN

STATION/POSITION TIME  TEMP    WIND        PRES    WAVE
                       AIR SEA DIR/SP/G            HT/PER
                 (UTC) (F)     (DEG/KT/KT) (MB)    (FT/S)
NORTHPORT PIER   0903   18     320/ 30/ 36 1014.2R
KEWAUNEE LAKESHO 0854   17     330/ 13/ 24 1014.5R
SHEBOYGAN LAKESH 0900   19     330/ 20/ 24 1016.4R
PORT WASHINGTON  0830   21     310/ 10/ 20 1016.6R
MILWAUKEE LAKESH 0900   22     350/ 12/ 14   N/A
KENOSHA   LAKESH 0900   22     320/ 16/ 19 1015.6
$$

TC  - TEMPERATURE IN CELSIUS
VSB - VISIBILITY IN STATUTE MILES
WCI - WIND CHILL INDEX
HX  - HEAT INDEX





USA.gov is the U.S. government's official web portal to all federal, state and local government web resources and services.